Burnet, TX

2:04 PM CST on January 23, 2017 (GMT -0600)
Burnet Municipal-Craddock

Weather History for KBMQ - January, 2013

Change the Weather History Date:

Monday, January 28, 2013

  Actual Average Record
Temperature  
Mean Temperature 72 °F -  
Max Temperature 77 °F 58 °F 79 °F (2015)
Min Temperature 66 °F 38 °F 23 °F (2014)
Cooling Degree Days 6    
Growing Degree Days 22 (Base 50)    
Moisture  
Dew Point 63 °F    
Average Humidity 79    
Maximum Humidity 88    
Minimum Humidity 58    
Precipitation  
Precipitation 0.00 in - - ()
Sea Level Pressure  
Sea Level Pressure 29.95 in    
Wind  
Wind Speed 11 mph (South)    
Max Wind Speed 22 mph    
Max Gust Speed 32 mph    
Visibility 9 miles    
Events Rain    
Averages and records for this station are not official NWS values.
T = Trace of Precipitation, MM = Missing Value Source: NWS Daily Summary

Daily Weather History Graph

Daily Weather History Graph

Search for Another Location

Airport or City:

Trip Planner

Search our weather history database for the weather conditions in past years. The results will help you decide how hot, cold, wet, or windy it might be!

Date:

Astronomy

Jan. 28, 2013 Rise Set
Actual Time 7:26 AM CST 6:05 PM CST
Civil Twilight 7:01 AM CST 6:31 PM CST
Nautical Twilight 6:32 AM CST 7:00 PM CST
Astronomical Twilight 6:03 AM CST 7:28 PM CST
Moon 7:50 PM CST (1/28) 8:02 AM CST (1/28)
Length of Visible Light 11h 30m
Length of Day
10h 39m
Full, 98% of the Moon is Illuminated
Jan 28
Full
Feb 3
Last Quarter
Feb 10
New
Feb 17
First Quarter
Feb 25
Full

Hourly Weather History & Observations

Time (CST) Temp. Dew Point Humidity Pressure Visibility Wind Dir Wind Speed Gust Speed Precip Events Conditions
12:53 AM 68.0 °F 63.0 °F 84% 30.00 in 10.0 mi South 9.2 mph 19.6 mph N/A   Overcast
1:53 AM 68.0 °F 63.0 °F 84% 30.01 in 10.0 mi South 8.1 mph - N/A   Overcast
2:13 AM 66.9 °F 63.0 °F 87% 30.04 in 10.0 mi South 8.1 mph - N/A   Overcast
2:30 AM 66.9 °F 63.0 °F 87% 30.04 in 10.0 mi South 8.1 mph - 0.00 in Rain Light Rain
2:53 AM 66.9 °F 63.0 °F 87% 29.99 in 9.0 mi SSE 5.8 mph - 0.00 in   Overcast
3:53 AM 66.9 °F 63.0 °F 87% 29.99 in 8.0 mi South 9.2 mph - 0.00 in   Overcast
4:08 AM 66.9 °F 63.0 °F 87% 30.02 in 9.0 mi South 8.1 mph - N/A   Overcast
4:48 AM 66.2 °F 62.6 °F 88% 30.01 in 8.0 mi South 8.1 mph - N/A   Overcast
4:53 AM 66.9 °F 63.0 °F 87% 29.97 in 8.0 mi South 8.1 mph - N/A   Overcast
5:09 AM 66.9 °F 63.0 °F 87% 30.01 in 7.0 mi SSE 9.2 mph - N/A   Overcast
5:53 AM 66.9 °F 63.0 °F 87% 29.97 in 8.0 mi South 11.5 mph - N/A   Overcast
6:53 AM 66.9 °F 63.0 °F 87% 29.99 in 8.0 mi South 10.4 mph 18.4 mph 0.00 in   Overcast
7:10 AM 68.0 °F 63.0 °F 84% 30.03 in 9.0 mi South 15.0 mph 20.7 mph N/A   Overcast
7:53 AM 68.0 °F 63.0 °F 84% 30.00 in 8.0 mi South 11.5 mph 19.6 mph N/A   Overcast
8:53 AM 69.1 °F 63.0 °F 81% 30.00 in 8.0 mi South 12.7 mph - N/A   Overcast
9:53 AM 70.0 °F 63.0 °F 78% 30.00 in 9.0 mi South 15.0 mph 24.2 mph N/A   Overcast
10:31 AM 72.0 °F 63.0 °F 73% 30.04 in 9.0 mi South 18.4 mph 31.1 mph N/A   Mostly Cloudy
10:53 AM 73.0 °F 63.0 °F 71% 29.99 in 8.0 mi South 18.4 mph 28.8 mph N/A   Mostly Cloudy
11:53 AM 75.0 °F 63.0 °F 66% 29.96 in 9.0 mi South 19.6 mph 28.8 mph N/A   Mostly Cloudy
12:53 PM 73.9 °F 63.0 °F 68% 29.93 in 9.0 mi South 17.3 mph 25.3 mph N/A   Overcast
1:53 PM 77.0 °F 61.0 °F 58% 29.89 in 10.0 mi South 19.6 mph 32.2 mph N/A   Mostly Cloudy
2:53 PM 75.0 °F 61.0 °F 62% 29.87 in 10.0 mi South 21.9 mph 32.2 mph N/A   Mostly Cloudy
3:53 PM 73.9 °F 61.0 °F 64% 29.87 in 10.0 mi South 17.3 mph 32.2 mph N/A   Overcast
4:53 PM 73.0 °F 62.1 °F 68% 29.87 in 10.0 mi South 11.5 mph 21.9 mph N/A   Overcast
5:53 PM 72.0 °F 62.1 °F 71% 29.87 in 10.0 mi South 12.7 mph 23.0 mph N/A   Overcast
6:44 PM 71.1 °F 63.0 °F 75% 29.92 in 10.0 mi SSE 13.8 mph 20.7 mph N/A   Overcast
6:53 PM 71.1 °F 63.0 °F 75% 29.88 in 10.0 mi SSE 10.4 mph 20.7 mph N/A   Overcast
7:05 PM 70.0 °F 63.0 °F 78% 29.92 in 10.0 mi SSE 8.1 mph 17.3 mph N/A   Overcast
7:13 PM 70.0 °F 63.0 °F 78% 29.92 in 10.0 mi SSE 6.9 mph 18.4 mph N/A   Overcast
7:53 PM 70.0 °F 63.0 °F 78% 29.89 in 10.0 mi SSE 8.1 mph - N/A   Overcast
8:53 PM 70.0 °F 63.0 °F 78% 29.88 in 10.0 mi SSE 11.5 mph 18.4 mph N/A   Overcast
9:53 PM 70.0 °F 64.0 °F 81% 29.87 in 10.0 mi SSE 10.4 mph 21.9 mph N/A   Overcast
10:44 PM 69.1 °F 64.0 °F 84% 29.90 in 9.0 mi South 13.8 mph 23.0 mph N/A   Overcast
10:53 PM 69.1 °F 64.0 °F 84% 29.86 in 9.0 mi SSE 11.5 mph 23.0 mph N/A   Overcast
11:53 PM 69.1 °F 64.9 °F 87% 29.85 in 9.0 mi South 12.7 mph 25.3 mph N/A   Overcast